Time,TemperatureF,DewpointF,PressureIn,WindDirection,WindDirectionDegrees,WindSpeedMPH,WindSpeedGustMPH,Humidity,HourlyPrecipIn,Conditions,Clouds,dailyrainin,SolarRadiationWatts/m^2,SoftwareType,DateUTC
2013-11-12 00:01:00,46.8,30.1,29.86,SW,226,7.0,12.0,52,0.00,,,0.00,0.00,VWS V14.01,2013-11-12 05:01:00,
2013-11-12 00:02:00,46.8,29.6,29.86,SSW,195,7.0,8.0,51,0.00,,,0.00,0.00,VWS V14.01,2013-11-12 05:02:00,
2013-11-12 00:07:00,46.8,29.6,29.86,SSW,202,8.0,8.0,51,0.00,,,0.00,0.00,VWS V14.01,2013-11-12 05:07:00,
2013-11-12 00:12:00,46.8,29.6,29.86,SW,216,6.0,8.0,51,0.00,,,0.00,0.00,VWS V14.01,2013-11-12 05:12:00,
2013-11-12 00:17:00,46.8,29.6,29.85,SSW,203,4.0,4.0,51,0.00,,,0.00,0.00,VWS V14.01,2013-11-12 05:17:00,
2013-11-12 00:22:00,46.7,30.0,29.85,SSW,209,10.0,10.0,52,0.00,,,0.00,0.00,VWS V14.01,2013-11-12 05:22:00,
2013-11-12 00:27:00,46.7,30.0,29.85,SSW,197,7.0,7.0,52,0.00,,,0.00,0.00,VWS V14.01,2013-11-12 05:27:00,
2013-11-12 00:32:00,46.6,29.9,29.84,SSW,193,6.0,6.0,52,0.00,,,0.00,0.00,VWS V14.01,2013-11-12 05:32:00,
2013-11-12 00:37:00,46.7,30.0,29.84,SSW,201,9.0,9.0,52,0.00,,,0.00,0.00,VWS V14.01,2013-11-12 05:37:00,
2013-11-12 00:42:00,46.7,30.0,29.84,SSW,206,6.0,8.0,52,0.00,,,0.00,0.00,VWS V14.01,2013-11-12 05:42:00,
2013-11-12 00:47:00,46.8,30.1,29.84,SSW,197,5.0,9.0,52,0.00,,,0.00,0.00,VWS V14.01,2013-11-12 05:47:00,
2013-11-12 00:52:00,46.8,30.1,29.84,SW,217,8.0,8.0,52,0.00,,,0.00,0.00,VWS V14.01,2013-11-12 05:52:00,
2013-11-12 00:57:00,46.8,30.1,29.84,SSW,209,9.0,11.0,52,0.00,,,0.00,0.00,VWS V14.01,2013-11-12 05:57:00,
2013-11-12 01:02:00,46.9,30.2,29.84,South,191,7.0,8.0,52,0.00,,,0.00,0.00,VWS V14.01,2013-11-12 06:02:00,
2013-11-12 01:07:00,46.9,30.2,29.84,SSW,200,7.0,10.0,52,0.00,,,0.00,0.00,VWS V14.01,2013-11-12 06:07:00,
2013-11-12 01:12:00,47.0,30.3,29.84,SW,221,12.0,12.0,52,0.00,,,0.00,0.00,VWS V14.01,2013-11-12 06:12:00,
2013-11-12 01:17:00,47.0,30.3,29.85,SW,215,11.0,13.0,52,0.00,,,0.00,0.00,VWS V14.01,2013-11-12 06:17:00,
2013-11-12 01:22:00,47.0,30.3,29.85,SSW,202,11.0,13.0,52,0.00,,,0.00,0.00,VWS V14.01,2013-11-12 06:22:00,
2013-11-12 01:27:00,47.0,30.3,29.85,SW,216,9.0,9.0,52,0.00,,,0.00,0.00,VWS V14.01,2013-11-12 06:27:00,
2013-11-12 01:32:00,47.0,30.3,29.85,SSW,197,13.0,13.0,52,0.00,,,0.00,0.00,VWS V14.01,2013-11-12 06:32:00,
2013-11-12 01:37:00,47.0,30.3,29.85,SSW,202,13.0,13.0,52,0.00,,,0.00,0.00,VWS V14.01,2013-11-12 06:37:00,
2013-11-12 01:42:00,47.0,30.3,29.85,SW,228,7.0,9.0,52,0.00,,,0.00,0.00,VWS V14.01,2013-11-12 06:42:00,
2013-11-12 01:47:00,47.1,30.4,29.85,SSW,212,6.0,9.0,52,0.00,,,0.00,0.00,VWS V14.01,2013-11-12 06:47:00,
2013-11-12 01:52:00,47.1,30.4,29.85,SSW,198,11.0,11.0,52,0.00,,,0.00,0.00,VWS V14.01,2013-11-12 06:52:00,
2013-11-12 01:57:00,47.2,30.5,29.85,South,179,9.0,11.0,52,0.00,,,0.00,0.00,VWS V14.01,2013-11-12 06:57:00,
2013-11-12 02:02:00,47.2,30.5,29.85,South,182,10.0,10.0,52,0.00,,,0.00,0.00,VWS V14.01,2013-11-12 07:02:00,
2013-11-12 02:07:00,47.2,30.5,29.85,SSW,201,6.0,6.0,52,0.00,,,0.00,0.00,VWS V14.01,2013-11-12 07:07:00,
2013-11-12 02:12:00,47.2,30.5,29.85,SW,230,6.0,7.0,52,0.00,,,0.00,0.00,VWS V14.01,2013-11-12 07:12:00,
2013-11-12 02:17:00,47.1,30.4,29.85,SW,228,4.0,5.0,52,0.00,,,0.00,0.00,VWS V14.01,2013-11-12 07:17:00,
2013-11-12 02:22:00,47.1,30.9,29.85,SW,229,6.0,10.0,53,0.00,,,0.00,0.00,VWS V14.01,2013-11-12 07:22:00,
2013-11-12 02:27:00,47.2,31.0,29.85,SSW,199,11.0,11.0,53,0.00,,,0.00,0.00,VWS V14.01,2013-11-12 07:27:00,
2013-11-12 02:32:00,47.4,31.6,29.84,SW,215,14.0,15.0,54,0.00,,,0.00,0.00,VWS V14.01,2013-11-12 07:32:00,
2013-11-12 02:37:00,47.5,31.7,29.85,WSW,242,8.0,11.0,54,0.00,,,0.00,0.00,VWS V14.01,2013-11-12 07:37:00,
2013-11-12 02:42:00,47.6,31.8,29.84,SSW,201,15.0,15.0,54,0.00,,,0.00,0.00,VWS V14.01,2013-11-12 07:42:00,
2013-11-12 02:47:00,47.6,31.8,29.84,SSW,206,12.0,16.0,54,0.00,,,0.00,0.00,VWS V14.01,2013-11-12 07:47:00,
2013-11-12 02:52:00,47.8,32.0,29.85,SW,218,7.0,12.0,54,0.00,,,0.00,0.00,VWS V14.01,2013-11-12 07:52:00,
2013-11-12 02:57:00,47.8,32.0,29.84,SSW,195,15.0,18.0,54,0.00,,,0.00,0.00,VWS V14.01,2013-11-12 07:57:00,
2013-11-12 03:02:00,47.7,32.3,29.85,WSW,248,17.0,20.0,55,0.00,,,0.00,0.00,VWS V14.01,2013-11-12 08:02:00,
2013-11-12 03:07:00,47.6,32.2,29.84,SW,226,9.0,16.0,55,0.00,,,0.00,0.00,VWS V14.01,2013-11-12 08:07:00,
2013-11-12 03:12:00,47.4,32.5,29.84,SSW,204,8.0,15.0,56,0.00,,,0.00,0.00,VWS V14.01,2013-11-12 08:12:00,
2013-11-12 03:17:00,47.4,32.5,29.84,SW,222,9.0,17.0,56,0.00,,,0.00,0.00,VWS V14.01,2013-11-12 08:17:00,
2013-11-12 03:22:00,47.3,32.8,29.84,WSW,252,5.0,13.0,57,0.00,,,0.00,0.00,VWS V14.01,2013-11-12 08:22:00,
2013-11-12 03:27:00,47.2,32.8,29.84,SSW,206,4.0,8.0,57,0.00,,,0.00,0.00,VWS V14.01,2013-11-12 08:27:00,
2013-11-12 03:31:00,47.2,32.8,29.84,SW,215,12.0,12.0,57,0.00,,,0.00,0.00,VWS V14.01,2013-11-12 08:31:00,
2013-11-12 03:36:00,47.2,32.8,29.84,SW,217,5.0,13.0,57,0.00,,,0.00,0.00,VWS V14.01,2013-11-12 08:36:00,
2013-11-12 03:41:00,47.1,32.7,29.85,WSW,251,8.0,11.0,57,0.00,,,0.00,0.00,VWS V14.01,2013-11-12 08:41:00,
2013-11-12 03:46:00,47.0,32.6,29.85,SW,224,16.0,16.0,57,0.00,,,0.00,0.00,VWS V14.01,2013-11-12 08:46:00,
2013-11-12 03:51:00,47.1,32.7,29.85,SW,214,8.0,9.0,57,0.00,,,0.00,0.00,VWS V14.01,2013-11-12 08:51:00,
2013-11-12 03:56:00,47.0,32.6,29.85,SSW,199,9.0,12.0,57,0.00,,,0.00,0.00,VWS V14.01,2013-11-12 08:56:00,
2013-11-12 04:01:00,46.9,32.9,29.85,SSW,207,12.0,12.0,58,0.00,,,0.00,0.00,VWS V14.01,2013-11-12 09:01:00,
2013-11-12 04:06:00,46.9,32.9,29.85,SW,214,10.0,10.0,58,0.00,,,0.00,0.00,VWS V14.01,2013-11-12 09:06:00,
2013-11-12 04:11:00,46.8,32.8,29.86,SSW,206,6.0,10.0,58,0.00,,,0.00,0.00,VWS V14.01,2013-11-12 09:11:00,
2013-11-12 04:16:00,46.8,33.2,29.86,SSW,207,6.0,7.0,59,0.00,,,0.00,0.00,VWS V14.01,2013-11-12 09:16:00,
2013-11-12 04:21:00,46.7,33.6,29.86,WSW,245,9.0,9.0,60,0.00,,,0.00,0.00,VWS V14.01,2013-11-12 09:21:00,
2013-11-12 04:26:00,46.5,33.8,29.86,SW,235,11.0,11.0,61,0.00,,,0.00,0.00,VWS V14.01,2013-11-12 09:26:00,
2013-11-12 04:31:00,46.3,33.6,29.86,SW,218,10.0,14.0,61,0.00,,,0.00,0.00,VWS V14.01,2013-11-12 09:31:00,
2013-11-12 04:36:00,46.2,33.9,29.88,NNW,328,5.0,8.0,62,0.00,,,0.00,0.00,VWS V14.01,2013-11-12 09:36:00,
2013-11-12 04:41:00,43.3,32.3,29.88,WNW,296,22.0,22.0,65,0.00,,,0.00,0.00,VWS V14.01,2013-11-12 09:41:00,
2013-11-12 04:46:00,40.5,32.2,29.89,NW,319,14.0,23.0,72,0.00,,,0.00,0.00,VWS V14.01,2013-11-12 09:46:00,
2013-11-12 04:51:00,40.0,32.1,29.89,WSW,258,11.0,17.0,73,0.00,,,0.00,0.00,VWS V14.01,2013-11-12 09:51:00,
2013-11-12 04:56:00,39.8,31.9,29.90,WNW,288,18.0,23.0,73,0.00,,,0.00,0.00,VWS V14.01,2013-11-12 09:56:00,
2013-11-12 05:01:00,39.8,31.5,29.90,North,9,12.0,14.0,72,0.00,,,0.00,0.00,VWS V14.01,2013-11-12 10:01:00,
2013-11-12 05:06:00,39.7,30.4,29.90,NW,318,19.0,24.0,69,0.00,,,0.00,0.00,VWS V14.01,2013-11-12 10:06:00,
2013-11-12 05:11:00,39.6,29.9,29.90,NW,322,20.0,23.0,68,0.00,,,0.00,0.00,VWS V14.01,2013-11-12 10:11:00,
2013-11-12 05:16:00,39.3,28.5,29.91,NW,305,13.0,18.0,65,0.00,,,0.00,0.00,VWS V14.01,2013-11-12 10:16:00,
2013-11-12 05:21:00,39.0,27.5,29.91,WNW,289,27.0,30.0,63,0.00,,,0.00,0.00,VWS V14.01,2013-11-12 10:21:00,
2013-11-12 05:26:00,38.7,27.6,29.91,NW,308,17.0,20.0,64,0.00,,,0.00,0.00,VWS V14.01,2013-11-12 10:26:00,
2013-11-12 05:31:00,38.5,27.0,29.92,WNW,302,13.0,19.0,63,0.00,,,0.00,0.00,VWS V14.01,2013-11-12 10:31:00,
2013-11-12 05:36:00,38.4,26.9,29.92,WNW,299,19.0,19.0,63,0.00,,,0.00,0.00,VWS V14.01,2013-11-12 10:36:00,
2013-11-12 05:41:00,38.3,26.8,29.92,West,281,21.0,21.0,63,0.00,,,0.00,0.00,VWS V14.01,2013-11-12 10:41:00,
2013-11-12 05:46:00,38.2,26.3,29.92,West,280,10.0,18.0,62,0.00,,,0.00,0.00,VWS V14.01,2013-11-12 10:46:00,
2013-11-12 05:51:00,38.0,26.1,29.92,WNW,291,8.0,20.0,62,0.00,,,0.00,0.00,VWS V14.01,2013-11-12 10:51:00,
2013-11-12 05:56:00,37.9,26.1,29.93,WNW,287,18.0,21.0,62,0.00,,,0.00,0.00,VWS V14.01,2013-11-12 10:56:00,
2013-11-12 06:01:00,37.9,25.3,29.93,WNW,287,23.0,23.0,60,0.00,,,0.00,0.00,VWS V14.01,2013-11-12 11:01:00,
2013-11-12 06:06:00,37.8,25.2,29.93,West,277,10.0,15.0,60,0.00,,,0.00,0.00,VWS V14.01,2013-11-12 11:06:00,
2013-11-12 06:11:00,37.7,25.5,29.93,WNW,298,14.0,17.0,61,0.00,,,0.00,0.00,VWS V14.01,2013-11-12 11:11:00,
2013-11-12 06:16:00,37.6,25.4,29.94,WNW,298,10.0,16.0,61,0.00,,,0.00,0.00,VWS V14.01,2013-11-12 11:16:00,
2013-11-12 06:21:00,37.6,25.0,29.94,WSW,258,11.0,11.0,60,0.00,,,0.00,0.00,VWS V14.01,2013-11-12 11:21:00,
2013-11-12 06:26:00,37.5,24.5,29.94,WNW,287,13.0,20.0,59,0.00,,,0.00,0.00,VWS V14.01,2013-11-12 11:26:00,
2013-11-12 06:31:00,37.5,24.9,29.94,West,278,13.0,16.0,60,0.00,,,0.00,0.00,VWS V14.01,2013-11-12 11:31:00,
2013-11-12 06:36:00,37.4,24.8,29.94,WNW,295,16.0,16.0,60,0.00,,,0.00,0.00,VWS V14.01,2013-11-12 11:36:00,
2013-11-12 06:41:00,37.3,24.7,29.94,West,280,12.0,15.0,60,0.00,,,0.00,0.00,VWS V14.01,2013-11-12 11:41:00,
2013-11-12 06:46:00,37.2,24.2,29.94,WNW,295,13.0,18.0,59,0.00,,,0.00,0.00,VWS V14.01,2013-11-12 11:46:00,
2013-11-12 06:51:00,37.1,24.1,29.94,NW,308,15.0,15.0,59,0.00,,,0.00,0.00,VWS V14.01,2013-11-12 11:51:00,
2013-11-12 06:56:00,37.0,23.6,29.95,WNW,283,17.0,17.0,58,0.00,,,0.00,5.00,VWS V14.01,2013-11-12 11:56:00,
2013-11-12 07:01:00,36.9,23.1,29.95,NW,320,20.0,20.0,57,0.00,,,0.00,7.00,VWS V14.01,2013-11-12 12:01:00,
2013-11-12 07:06:00,36.7,22.9,29.95,WNW,299,15.0,17.0,57,0.00,,,0.00,9.00,VWS V14.01,2013-11-12 12:06:00,
2013-11-12 07:11:00,36.6,22.8,29.96,West,268,17.0,19.0,57,0.00,,,0.00,11.00,VWS V14.01,2013-11-12 12:11:00,
2013-11-12 07:16:00,36.4,22.6,29.96,NNW,335,13.0,13.0,57,0.00,,,0.00,12.00,VWS V14.01,2013-11-12 12:16:00,
2013-11-12 07:21:00,36.4,23.0,29.96,West,271,4.0,7.0,58,0.00,,,0.00,18.00,VWS V14.01,2013-11-12 12:21:00,
2013-11-12 07:26:00,36.3,23.0,29.96,WSW,258,7.0,9.0,58,0.00,,,0.00,23.00,VWS V14.01,2013-11-12 12:26:00,
2013-11-12 07:31:00,36.2,23.3,29.97,NW,308,13.0,14.0,59,0.00,,,0.00,28.00,VWS V14.01,2013-11-12 12:31:00,
2013-11-12 07:36:00,36.2,23.7,29.97,WNW,283,18.0,18.0,60,0.00,,,0.00,28.00,VWS V14.01,2013-11-12 12:36:00,
2013-11-12 07:41:00,36.1,24.0,29.97,WNW,301,12.0,15.0,61,0.00,,,0.00,28.00,VWS V14.01,2013-11-12 12:41:00,
2013-11-12 07:46:00,36.0,23.5,29.98,West,280,12.0,14.0,60,0.00,,,0.00,32.00,VWS V14.01,2013-11-12 12:46:00,
2013-11-12 07:51:00,35.9,23.4,29.98,WNW,287,11.0,19.0,60,0.00,,,0.00,37.00,VWS V14.01,2013-11-12 12:51:00,
2013-11-12 07:56:00,35.8,23.3,29.98,WNW,289,14.0,17.0,60,0.00,,,0.00,35.00,VWS V14.01,2013-11-12 12:56:00,
2013-11-12 08:01:00,35.8,22.9,29.98,NW,312,16.0,18.0,59,0.00,,,0.00,33.00,VWS V14.01,2013-11-12 13:01:00,
2013-11-12 08:06:00,35.7,22.8,29.98,West,274,6.0,10.0,59,0.00,,,0.00,37.00,VWS V14.01,2013-11-12 13:06:00,
2013-11-12 08:11:00,35.7,22.4,29.98,NW,322,11.0,12.0,58,0.00,,,0.00,37.00,VWS V14.01,2013-11-12 13:11:00,
2013-11-12 08:16:00,35.6,22.3,29.98,NW,324,8.0,11.0,58,0.00,,,0.00,37.00,VWS V14.01,2013-11-12 13:16:00,
2013-11-12 08:21:00,35.5,22.2,29.99,West,274,14.0,16.0,58,0.00,,,0.00,42.00,VWS V14.01,2013-11-12 13:21:00,
2013-11-12 08:26:00,35.3,22.0,29.99,NW,321,9.0,9.0,58,0.00,,,0.00,42.00,VWS V14.01,2013-11-12 13:26:00,
2013-11-12 08:31:00,35.3,22.0,29.99,WNW,287,10.0,10.0,58,0.00,,,0.00,49.00,VWS V14.01,2013-11-12 13:31:00,
2013-11-12 08:36:00,35.3,22.0,30.00,WNW,282,11.0,11.0,58,0.00,,,0.00,51.00,VWS V14.01,2013-11-12 13:36:00,
2013-11-12 08:41:00,35.3,22.0,30.00,NNW,348,13.0,13.0,58,0.00,,,0.00,54.00,VWS V14.01,2013-11-12 13:41:00,
2013-11-12 08:46:00,35.2,21.5,30.00,WNW,299,9.0,14.0,57,0.00,,,0.00,70.00,VWS V14.01,2013-11-12 13:46:00,
2013-11-12 08:51:00,35.2,21.5,30.00,West,276,11.0,12.0,57,0.00,,,0.00,69.00,VWS V14.01,2013-11-12 13:51:00,
2013-11-12 08:56:00,35.1,21.0,30.00,NW,318,13.0,13.0,56,0.00,,,0.00,63.00,VWS V14.01,2013-11-12 13:56:00,
2013-11-12 09:01:00,35.1,21.0,30.00,WNW,293,11.0,13.0,56,0.00,,,0.00,62.00,VWS V14.01,2013-11-12 14:01:00,
2013-11-12 09:06:00,34.9,20.0,30.00,WNW,289,14.0,15.0,54,0.00,,,0.00,63.00,VWS V14.01,2013-11-12 14:06:00,
2013-11-12 09:11:00,34.8,20.3,30.01,West,281,11.0,11.0,55,0.00,,,0.00,63.00,VWS V14.01,2013-11-12 14:11:00,
2013-11-12 09:16:00,34.8,20.3,30.01,WNW,295,11.0,14.0,55,0.00,,,0.00,70.00,VWS V14.01,2013-11-12 14:16:00,
2013-11-12 09:21:00,34.7,20.2,30.01,North,354,6.0,10.0,55,0.00,,,0.00,76.00,VWS V14.01,2013-11-12 14:21:00,
2013-11-12 09:26:00,34.6,20.1,30.01,NW,312,14.0,14.0,55,0.00,,,0.00,79.00,VWS V14.01,2013-11-12 14:26:00,
2013-11-12 09:31:00,34.2,19.7,30.02,West,278,20.0,20.0,55,0.00,,,0.00,81.00,VWS V14.01,2013-11-12 14:31:00,
2013-11-12 09:36:00,34.0,19.5,30.01,WNW,287,17.0,18.0,55,0.00,,,0.00,97.00,VWS V14.01,2013-11-12 14:36:00,
2013-11-12 09:41:00,33.9,19.5,30.02,WNW,285,11.0,13.0,55,0.00,,,0.00,104.00,VWS V14.01,2013-11-12 14:41:00,
2013-11-12 09:46:00,33.8,19.4,30.02,WNW,293,17.0,18.0,55,0.00,,,0.00,114.00,VWS V14.01,2013-11-12 14:46:00,
2013-11-12 09:51:00,33.8,19.4,30.02,NW,311,10.0,10.0,55,0.00,,,0.00,109.00,VWS V14.01,2013-11-12 14:51:00,
2013-11-12 09:56:00,33.8,19.4,30.02,NW,311,5.0,9.0,55,0.00,,,0.00,95.00,VWS V14.01,2013-11-12 14:56:00,
2013-11-12 10:01:00,33.8,18.9,30.03,WSW,241,13.0,13.0,54,0.00,,,0.00,86.00,VWS V14.01,2013-11-12 15:01:00,
2013-11-12 10:06:00,33.7,18.8,30.03,WNW,303,13.0,13.0,54,0.00,,,0.00,88.00,VWS V14.01,2013-11-12 15:06:00,
2013-11-12 10:11:00,33.7,18.8,30.03,West,276,11.0,11.0,54,0.00,,,0.00,93.00,VWS V14.01,2013-11-12 15:11:00,
2013-11-12 10:16:00,33.6,18.7,30.03,NW,324,10.0,10.0,54,0.00,,,0.00,90.00,VWS V14.01,2013-11-12 15:16:00,
2013-11-12 10:21:00,33.6,18.7,30.03,WNW,293,8.0,10.0,54,0.00,,,0.00,93.00,VWS V14.01,2013-11-12 15:21:00,
2013-11-12 10:26:00,33.6,18.7,30.03,WNW,303,11.0,14.0,54,0.00,,,0.00,91.00,VWS V14.01,2013-11-12 15:26:00,
2013-11-12 10:31:00,33.5,19.1,30.03,WNW,283,15.0,15.0,55,0.00,,,0.00,91.00,VWS V14.01,2013-11-12 15:31:00,
2013-11-12 10:36:00,33.4,19.4,30.03,WNW,297,14.0,15.0,56,0.00,,,0.00,97.00,VWS V14.01,2013-11-12 15:36:00,
2013-11-12 10:41:00,33.3,19.3,30.04,WNW,303,5.0,9.0,56,0.00,,,0.00,97.00,VWS V14.01,2013-11-12 15:41:00,
2013-11-12 10:46:00,33.3,19.7,30.03,WNW,302,9.0,10.0,57,0.00,,,0.00,95.00,VWS V14.01,2013-11-12 15:46:00,
2013-11-12 10:51:00,33.2,19.2,30.03,WNW,288,11.0,14.0,56,0.00,,,0.00,98.00,VWS V14.01,2013-11-12 15:51:00,
2013-11-12 10:56:00,33.1,19.5,30.03,West,279,13.0,13.0,57,0.00,,,0.00,93.00,VWS V14.01,2013-11-12 15:56:00,
2013-11-12 11:01:00,33.1,19.9,30.02,NW,311,11.0,14.0,58,0.00,,,0.00,90.00,VWS V14.01,2013-11-12 16:01:00,
2013-11-12 11:06:00,33.2,20.0,30.02,NW,312,11.0,11.0,58,0.00,,,0.00,98.00,VWS V14.01,2013-11-12 16:06:00,
2013-11-12 11:11:00,33.0,19.4,30.02,WNW,291,11.0,16.0,57,0.00,,,0.00,95.00,VWS V14.01,2013-11-12 16:11:00,
2013-11-12 11:16:00,33.0,19.9,30.03,WNW,291,17.0,17.0,58,0.00,,,0.00,98.00,VWS V14.01,2013-11-12 16:16:00,
2013-11-12 11:21:00,32.8,19.7,30.02,NW,317,12.0,12.0,58,0.00,,,0.00,98.00,VWS V14.01,2013-11-12 16:21:00,
2013-11-12 11:26:00,32.7,19.6,30.02,WNW,289,12.0,12.0,58,0.00,,,0.00,102.00,VWS V14.01,2013-11-12 16:26:00,
2013-11-12 11:31:00,32.6,19.5,30.02,SW,230,13.0,14.0,58,0.00,,,0.00,105.00,VWS V14.01,2013-11-12 16:31:00,
2013-11-12 11:36:00,32.8,20.1,30.02,West,272,11.0,11.0,59,0.00,,,0.00,107.00,VWS V14.01,2013-11-12 16:36:00,
2013-11-12 11:41:00,32.7,20.0,30.02,WNW,288,9.0,15.0,59,0.00,,,0.00,107.00,VWS V14.01,2013-11-12 16:41:00,
2013-11-12 11:46:00,32.8,20.1,30.02,WNW,290,10.0,12.0,59,0.00,,,0.00,111.00,VWS V14.01,2013-11-12 16:46:00,
2013-11-12 11:51:00,32.8,20.1,30.02,WNW,293,5.0,15.0,59,0.00,,,0.00,116.00,VWS V14.01,2013-11-12 16:51:00,
2013-11-12 11:56:00,32.6,19.5,30.02,NW,326,6.0,9.0,58,0.00,,,0.00,118.00,VWS V14.01,2013-11-12 16:56:00,
2013-11-12 12:01:00,32.6,19.5,30.02,NW,304,21.0,21.0,58,0.00,,,0.00,123.00,VWS V14.01,2013-11-12 17:01:00,
2013-11-12 12:06:00,32.4,19.3,30.02,West,279,17.0,20.0,58,0.00,,,0.00,123.00,VWS V14.01,2013-11-12 17:06:00,
2013-11-12 12:11:00,32.4,19.3,30.02,WNW,297,8.0,10.0,58,0.00,,,0.00,132.00,VWS V14.01,2013-11-12 17:11:00,
2013-11-12 12:16:00,32.3,18.8,30.02,WNW,290,20.0,20.0,57,0.00,,,0.00,127.00,VWS V14.01,2013-11-12 17:16:00,
2013-11-12 12:21:00,32.1,19.0,30.02,WNW,287,15.0,17.0,58,0.00,,,0.00,130.00,VWS V14.01,2013-11-12 17:21:00,
2013-11-12 12:26:00,32.1,19.0,30.02,WNW,282,7.0,7.0,58,0.00,,,0.00,134.00,VWS V14.01,2013-11-12 17:26:00,
2013-11-12 12:31:00,32.1,18.6,30.02,WNW,285,2.0,3.0,57,0.00,,,0.00,135.00,VWS V14.01,2013-11-12 17:31:00,
2013-11-12 12:36:00,32.2,18.7,30.02,NW,305,13.0,16.0,57,0.00,,,0.00,142.00,VWS V14.01,2013-11-12 17:36:00,
2013-11-12 12:41:00,32.1,18.6,30.02,West,280,3.0,6.0,57,0.00,,,0.00,135.00,VWS V14.01,2013-11-12 17:41:00,
2013-11-12 12:46:00,32.1,18.2,30.02,WNW,289,13.0,18.0,56,0.00,,,0.00,137.00,VWS V14.01,2013-11-12 17:46:00,
2013-11-12 12:51:00,32.0,18.1,30.02,WNW,293,19.0,19.0,56,0.00,,,0.00,141.00,VWS V14.01,2013-11-12 17:51:00,
2013-11-12 12:56:00,31.9,18.4,30.02,WNW,285,19.0,19.0,57,0.00,,,0.00,144.00,VWS V14.01,2013-11-12 17:56:00,
2013-11-12 13:01:00,31.8,17.9,30.03,WNW,285,12.0,14.0,56,0.00,,,0.00,146.00,VWS V14.01,2013-11-12 18:01:00,
2013-11-12 13:06:00,31.8,17.9,30.02,West,265,17.0,19.0,56,0.00,,,0.00,142.00,VWS V14.01,2013-11-12 18:06:00,
2013-11-12 13:11:00,31.8,17.9,30.03,West,279,24.0,24.0,56,0.00,,,0.00,141.00,VWS V14.01,2013-11-12 18:11:00,
2013-11-12 13:16:00,31.8,17.9,30.03,WNW,299,8.0,8.0,56,0.00,,,0.00,148.00,VWS V14.01,2013-11-12 18:16:00,
2013-11-12 13:21:00,32.0,18.1,30.03,WNW,284,9.0,9.0,56,0.00,,,0.00,153.00,VWS V14.01,2013-11-12 18:21:00,
2013-11-12 13:26:00,32.0,18.1,30.03,West,275,13.0,13.0,56,0.00,,,0.00,149.00,VWS V14.01,2013-11-12 18:26:00,
2013-11-12 13:31:00,32.1,18.2,30.03,WNW,298,12.0,12.0,56,0.00,,,0.00,142.00,VWS V14.01,2013-11-12 18:31:00,
2013-11-12 13:36:00,32.2,18.3,30.03,NW,314,11.0,17.0,56,0.00,,,0.00,135.00,VWS V14.01,2013-11-12 18:36:00,
2013-11-12 13:41:00,32.0,18.1,30.03,WNW,295,9.0,9.0,56,0.00,,,0.00,135.00,VWS V14.01,2013-11-12 18:41:00,
2013-11-12 13:46:00,32.0,18.1,30.03,WNW,297,11.0,12.0,56,0.00,,,0.00,127.00,VWS V14.01,2013-11-12 18:46:00,
2013-11-12 13:51:00,32.1,18.2,30.03,NW,325,11.0,11.0,56,0.00,,,0.00,116.00,VWS V14.01,2013-11-12 18:51:00,
2013-11-12 13:56:00,32.2,17.9,30.03,NW,326,9.0,10.0,55,0.00,,,0.00,111.00,VWS V14.01,2013-11-12 18:56:00,
2013-11-12 14:01:00,32.4,18.5,30.03,WNW,289,9.0,11.0,56,0.00,,,0.00,107.00,VWS V14.01,2013-11-12 19:01:00,
2013-11-12 14:06:00,32.2,17.4,30.03,WNW,283,11.0,16.0,54,0.00,,,0.00,107.00,VWS V14.01,2013-11-12 19:06:00,
2013-11-12 14:11:00,32.0,17.2,30.04,West,280,16.0,21.0,54,0.00,,,0.00,107.00,VWS V14.01,2013-11-12 19:11:00,
2013-11-12 14:16:00,32.1,17.3,30.04,WNW,285,16.0,17.0,54,0.00,,,0.00,111.00,VWS V14.01,2013-11-12 19:16:00,
2013-11-12 14:21:00,32.1,17.3,30.03,NNW,346,10.0,14.0,54,0.00,,,0.00,118.00,VWS V14.01,2013-11-12 19:21:00,
2013-11-12 14:26:00,32.2,17.4,30.04,NW,311,12.0,20.0,54,0.00,,,0.00,118.00,VWS V14.01,2013-11-12 19:26:00,
2013-11-12 14:31:00,32.3,17.5,30.04,NNW,337,9.0,10.0,54,0.00,,,0.00,113.00,VWS V14.01,2013-11-12 19:31:00,
2013-11-12 14:36:00,32.3,17.5,30.04,NW,308,7.0,11.0,54,0.00,,,0.00,105.00,VWS V14.01,2013-11-12 19:36:00,
2013-11-12 14:41:00,32.3,17.5,30.05,WNW,291,12.0,15.0,54,0.00,,,0.00,98.00,VWS V14.01,2013-11-12 19:41:00,
2013-11-12 14:46:00,32.2,17.4,30.05,NW,312,13.0,19.0,54,0.00,,,0.00,88.00,VWS V14.01,2013-11-12 19:46:00,
2013-11-12 14:51:00,32.3,17.1,30.05,NW,307,13.0,19.0,53,0.00,,,0.00,88.00,VWS V14.01,2013-11-12 19:51:00,
2013-11-12 14:56:00,32.3,17.1,30.05,NW,320,11.0,13.0,53,0.00,,,0.00,86.00,VWS V14.01,2013-11-12 19:56:00,
2013-11-12 15:00:00,32.4,17.6,30.05,NW,308,15.0,15.0,54,0.00,,,0.00,77.00,VWS V14.01,2013-11-12 20:00:00,
2013-11-12 15:05:00,32.5,17.3,30.05,West,274,11.0,11.0,53,0.00,,,0.00,74.00,VWS V14.01,2013-11-12 20:05:00,
2013-11-12 15:10:00,32.5,17.3,30.05,WNW,297,14.0,15.0,53,0.00,,,0.00,69.00,VWS V14.01,2013-11-12 20:10:00,
2013-11-12 15:15:00,32.6,17.4,30.05,West,261,10.0,12.0,53,0.00,,,0.00,63.00,VWS V14.01,2013-11-12 20:15:00,
2013-11-12 15:20:00,32.6,17.4,30.05,NW,324,10.0,16.0,53,0.00,,,0.00,56.00,VWS V14.01,2013-11-12 20:20:00,
2013-11-12 15:25:00,32.6,17.4,30.05,NW,324,12.0,12.0,53,0.00,,,0.00,53.00,VWS V14.01,2013-11-12 20:25:00,
2013-11-12 15:30:00,32.6,17.4,30.05,WNW,294,13.0,16.0,53,0.00,,,0.00,47.00,VWS V14.01,2013-11-12 20:30:00,
2013-11-12 15:35:00,32.6,17.4,30.05,West,270,8.0,13.0,53,0.00,,,0.00,40.00,VWS V14.01,2013-11-12 20:35:00,
2013-11-12 15:40:00,32.6,17.4,30.05,West,268,8.0,14.0,53,0.00,,,0.00,35.00,VWS V14.01,2013-11-12 20:40:00,
2013-11-12 15:45:00,32.6,17.4,30.06,WNW,282,10.0,18.0,53,0.00,,,0.00,35.00,VWS V14.01,2013-11-12 20:45:00,
2013-11-12 15:50:00,32.7,17.5,30.06,WNW,301,12.0,12.0,53,0.00,,,0.00,30.00,VWS V14.01,2013-11-12 20:50:00,
2013-11-12 15:55:00,32.8,18.0,30.06,West,266,9.0,14.0,54,0.00,,,0.00,33.00,VWS V14.01,2013-11-12 20:55:00,
2013-11-12 16:00:00,32.9,17.7,30.06,WNW,285,16.0,19.0,53,0.00,,,0.00,28.00,VWS V14.01,2013-11-12 21:00:00,
2013-11-12 16:05:00,32.9,17.7,30.06,WNW,288,9.0,17.0,53,0.00,,,0.00,21.00,VWS V14.01,2013-11-12 21:05:00,
2013-11-12 16:10:00,32.9,17.7,30.06,West,259,11.0,11.0,53,0.00,,,0.00,16.00,VWS V14.01,2013-11-12 21:10:00,
2013-11-12 16:15:00,32.8,17.6,30.06,WNW,283,14.0,14.0,53,0.00,,,0.00,12.00,VWS V14.01,2013-11-12 21:15:00,
2013-11-12 16:20:00,32.7,17.5,30.06,NW,314,11.0,16.0,53,0.00,,,0.00,9.00,VWS V14.01,2013-11-12 21:20:00,
2013-11-12 16:25:00,32.6,16.9,30.06,WNW,292,18.0,18.0,52,0.00,,,0.00,9.00,VWS V14.01,2013-11-12 21:25:00,
2013-11-12 16:30:00,32.5,17.3,30.07,West,272,14.0,16.0,53,0.00,,,0.00,5.00,VWS V14.01,2013-11-12 21:30:00,
2013-11-12 16:35:00,32.4,17.2,30.07,NW,314,11.0,15.0,53,0.00,,,0.00,0.00,VWS V14.01,2013-11-12 21:35:00,
2013-11-12 16:40:00,32.3,17.1,30.07,West,280,7.0,16.0,53,0.00,,,0.00,0.00,VWS V14.01,2013-11-12 21:40:00,
2013-11-12 16:45:00,32.2,17.0,30.07,NW,308,9.0,14.0,53,0.00,,,0.00,0.00,VWS V14.01,2013-11-12 21:45:00,
2013-11-12 16:50:00,32.0,17.2,30.08,WSW,248,8.0,12.0,54,0.00,,,0.00,0.00,VWS V14.01,2013-11-12 21:50:00,
2013-11-12 16:55:00,32.0,17.2,30.08,WNW,297,11.0,18.0,54,0.00,,,0.00,0.00,VWS V14.01,2013-11-12 21:55:00,
2013-11-12 17:00:00,31.9,17.2,30.08,WNW,292,13.0,14.0,54,0.00,,,0.00,0.00,VWS V14.01,2013-11-12 22:00:00,
2013-11-12 17:05:00,31.9,17.2,30.09,West,268,19.0,19.0,54,0.00,,,0.00,0.00,VWS V14.01,2013-11-12 22:05:00,
2013-11-12 17:10:00,31.7,17.0,30.08,NW,313,11.0,17.0,54,0.00,,,0.00,0.00,VWS V14.01,2013-11-12 22:10:00,
2013-11-12 17:15:00,31.6,16.9,30.08,West,278,13.0,18.0,54,0.00,,,0.00,0.00,VWS V14.01,2013-11-12 22:15:00,
2013-11-12 17:20:00,31.5,16.8,30.09,WNW,301,5.0,8.0,54,0.00,,,0.00,0.00,VWS V14.01,2013-11-12 22:20:00,
2013-11-12 17:25:00,31.4,16.7,30.09,WNW,285,13.0,13.0,54,0.00,,,0.00,0.00,VWS V14.01,2013-11-12 22:25:00,
2013-11-12 17:30:00,31.4,16.7,30.09,WNW,295,17.0,17.0,54,0.00,,,0.00,0.00,VWS V14.01,2013-11-12 22:30:00,
2013-11-12 17:35:00,31.3,16.6,30.10,WSW,251,10.0,14.0,54,0.00,,,0.00,0.00,VWS V14.01,2013-11-12 22:35:00,
2013-11-12 17:40:00,31.2,16.5,30.10,WNW,301,4.0,9.0,54,0.00,,,0.00,0.00,VWS V14.01,2013-11-12 22:40:00,
2013-11-12 17:45:00,31.2,16.5,30.10,NNW,330,4.0,13.0,54,0.00,,,0.00,0.00,VWS V14.01,2013-11-12 22:45:00,
2013-11-12 17:50:00,31.2,16.5,30.10,West,278,13.0,16.0,54,0.00,,,0.00,0.00,VWS V14.01,2013-11-12 22:50:00,
2013-11-12 17:55:00,31.1,16.4,30.10,WNW,290,17.0,19.0,54,0.00,,,0.00,0.00,VWS V14.01,2013-11-12 22:55:00,
2013-11-12 18:00:00,31.1,16.4,30.11,NW,320,10.0,12.0,54,0.00,,,0.00,0.00,VWS V14.01,2013-11-12 23:00:00,
2013-11-12 18:05:00,31.0,16.3,30.11,WNW,293,9.0,9.0,54,0.00,,,0.00,0.00,VWS V14.01,2013-11-12 23:05:00,
2013-11-12 18:10:00,30.9,16.2,30.11,West,281,11.0,16.0,54,0.00,,,0.00,0.00,VWS V14.01,2013-11-12 23:10:00,
2013-11-12 18:15:00,31.0,16.3,30.10,West,269,8.0,13.0,54,0.00,,,0.00,0.00,VWS V14.01,2013-11-12 23:15:00,
2013-11-12 18:20:00,30.8,16.1,30.11,West,277,7.0,8.0,54,0.00,,,0.00,0.00,VWS V14.01,2013-11-12 23:20:00,
2013-11-12 18:25:00,30.8,16.1,30.11,WNW,285,6.0,9.0,54,0.00,,,0.00,0.00,VWS V14.01,2013-11-12 23:25:00,
2013-11-12 18:30:00,30.8,16.1,30.11,WNW,301,3.0,10.0,54,0.00,,,0.00,0.00,VWS V14.01,2013-11-12 23:30:00,
2013-11-12 18:35:00,30.8,16.1,30.11,West,280,7.0,17.0,54,0.00,,,0.00,0.00,VWS V14.01,2013-11-12 23:35:00,
2013-11-12 18:40:00,30.8,16.1,30.12,WNW,300,9.0,13.0,54,0.00,,,0.00,0.00,VWS V14.01,2013-11-12 23:40:00,
2013-11-12 18:45:00,30.7,16.0,30.11,NW,323,5.0,10.0,54,0.00,,,0.00,0.00,VWS V14.01,2013-11-12 23:45:00,
2013-11-12 18:50:00,30.6,15.9,30.11,NW,308,3.0,6.0,54,0.00,,,0.00,0.00,VWS V14.01,2013-11-12 23:50:00,
2013-11-12 18:55:00,30.6,15.9,30.11,NNW,330,4.0,5.0,54,0.00,,,0.00,0.00,VWS V14.01,2013-11-12 23:55:00,
2013-11-12 19:00:00,30.5,16.3,30.12,North,354,5.0,8.0,55,0.00,,,0.00,0.00,VWS V14.01,2013-11-13 00:00:00,
2013-11-12 19:05:00,30.4,16.2,30.12,NW,315,5.0,11.0,55,0.00,,,0.00,0.00,VWS V14.01,2013-11-13 00:05:00,
2013-11-12 19:11:00,30.3,16.1,30.12,NNW,341,10.0,12.0,55,0.00,,,0.00,0.00,VWS V14.01,2013-11-13 00:11:00,
2013-11-12 19:16:00,30.2,16.0,30.12,West,280,7.0,8.0,55,0.00,,,0.00,0.00,VWS V14.01,2013-11-13 00:16:00,
2013-11-12 19:21:00,30.1,15.9,30.12,NW,316,6.0,9.0,55,0.00,,,0.00,0.00,VWS V14.01,2013-11-13 00:21:00,
2013-11-12 19:26:00,30.1,15.9,30.12,WNW,284,9.0,10.0,55,0.00,,,0.00,0.00,VWS V14.01,2013-11-13 00:26:00,
2013-11-12 19:31:00,30.1,15.9,30.12,WNW,289,9.0,9.0,55,0.00,,,0.00,0.00,VWS V14.01,2013-11-13 00:31:00,
2013-11-12 19:36:00,30.1,15.9,30.12,NNW,344,4.0,10.0,55,0.00,,,0.00,0.00,VWS V14.01,2013-11-13 00:36:00,
2013-11-12 19:41:00,30.1,15.9,30.12,West,280,6.0,12.0,55,0.00,,,0.00,0.00,VWS V14.01,2013-11-13 00:41:00,
2013-11-12 19:46:00,30.1,15.9,30.12,West,263,8.0,10.0,55,0.00,,,0.00,0.00,VWS V14.01,2013-11-13 00:46:00,
2013-11-12 19:51:00,30.2,16.0,30.12,WNW,286,5.0,7.0,55,0.00,,,0.00,0.00,VWS V14.01,2013-11-13 00:51:00,
2013-11-12 19:56:00,30.1,15.9,30.12,WNW,293,5.0,7.0,55,0.00,,,0.00,0.00,VWS V14.01,2013-11-13 00:56:00,
2013-11-12 20:01:00,29.9,16.1,30.12,West,278,6.0,9.0,56,0.00,,,0.00,0.00,VWS V14.01,2013-11-13 01:01:00,
2013-11-12 20:05:00,29.9,16.1,30.12,NW,308,3.0,8.0,56,0.00,,,0.00,0.00,VWS V14.01,2013-11-13 01:05:00,
2013-11-12 20:10:00,29.9,16.1,30.12,West,274,8.0,8.0,56,0.00,,,0.00,0.00,VWS V14.01,2013-11-13 01:10:00,
2013-11-12 20:15:00,29.9,16.1,30.13,West,279,2.0,6.0,56,0.00,,,0.00,0.00,VWS V14.01,2013-11-13 01:15:00,
2013-11-12 20:20:00,29.9,16.1,30.13,WNW,293,2.0,4.0,56,0.00,,,0.00,0.00,VWS V14.01,2013-11-13 01:20:00,
2013-11-12 20:25:00,29.8,15.6,30.13,West,274,4.0,6.0,55,0.00,,,0.00,0.00,VWS V14.01,2013-11-13 01:25:00,
2013-11-12 20:30:00,29.9,15.7,30.13,West,264,3.0,7.0,55,0.00,,,0.00,0.00,VWS V14.01,2013-11-13 01:30:00,
2013-11-12 20:35:00,29.9,16.1,30.13,West,262,3.0,3.0,56,0.00,,,0.00,0.00,VWS V14.01,2013-11-13 01:35:00,
2013-11-12 20:40:00,29.8,15.6,30.13,WNW,293,3.0,8.0,55,0.00,,,0.00,0.00,VWS V14.01,2013-11-13 01:40:00,
2013-11-12 20:45:00,29.8,15.6,30.13,WNW,283,6.0,6.0,55,0.00,,,0.00,0.00,VWS V14.01,2013-11-13 01:45:00,
2013-11-12 20:50:00,29.8,15.6,30.13,WNW,285,3.0,9.0,55,0.00,,,0.00,0.00,VWS V14.01,2013-11-13 01:50:00,
2013-11-12 20:55:00,29.8,15.6,30.13,WNW,286,4.0,6.0,55,0.00,,,0.00,0.00,VWS V14.01,2013-11-13 01:55:00,
2013-11-12 21:00:00,29.7,15.5,30.13,West,273,8.0,11.0,55,0.00,,,0.00,0.00,VWS V14.01,2013-11-13 02:00:00,
2013-11-12 21:05:00,29.8,15.6,30.13,West,277,7.0,9.0,55,0.00,,,0.00,0.00,VWS V14.01,2013-11-13 02:05:00,
2013-11-12 21:10:00,29.9,15.3,30.13,West,272,7.0,12.0,54,0.00,,,0.00,0.00,VWS V14.01,2013-11-13 02:10:00,
2013-11-12 21:15:00,30.0,15.4,30.13,WSW,239,6.0,8.0,54,0.00,,,0.00,0.00,VWS V14.01,2013-11-13 02:15:00,
2013-11-12 21:20:00,29.9,15.3,30.13,WNW,286,4.0,7.0,54,0.00,,,0.00,0.00,VWS V14.01,2013-11-13 02:20:00,
2013-11-12 21:25:00,29.8,15.2,30.13,WNW,285,6.0,7.0,54,0.00,,,0.00,0.00,VWS V14.01,2013-11-13 02:25:00,
2013-11-12 21:30:00,29.7,15.5,30.13,West,272,6.0,7.0,55,0.00,,,0.00,0.00,VWS V14.01,2013-11-13 02:30:00,
2013-11-12 21:35:00,29.7,15.5,30.13,West,275,3.0,4.0,55,0.00,,,0.00,0.00,VWS V14.01,2013-11-13 02:35:00,
2013-11-12 21:40:00,29.6,15.4,30.13,West,269,2.0,4.0,55,0.00,,,0.00,0.00,VWS V14.01,2013-11-13 02:40:00,
2013-11-12 21:45:00,29.5,15.3,30.13,WNW,295,2.0,2.0,55,0.00,,,0.00,0.00,VWS V14.01,2013-11-13 02:45:00,
2013-11-12 21:50:00,29.4,15.2,30.14,WNW,297,8.0,11.0,55,0.00,,,0.00,0.00,VWS V14.01,2013-11-13 02:50:00,
2013-11-12 21:55:00,29.5,15.3,30.14,WNW,292,3.0,6.0,55,0.00,,,0.00,0.00,VWS V14.01,2013-11-13 02:55:00,
2013-11-12 22:00:00,29.5,15.3,30.14,WSW,237,4.0,8.0,55,0.00,,,0.00,0.00,VWS V14.01,2013-11-13 03:00:00,
2013-11-12 22:05:00,29.4,15.2,30.13,West,274,4.0,6.0,55,0.00,,,0.00,0.00,VWS V14.01,2013-11-13 03:05:00,
2013-11-12 22:10:00,29.3,15.1,30.13,West,259,4.0,8.0,55,0.00,,,0.00,0.00,VWS V14.01,2013-11-13 03:10:00,
2013-11-12 22:15:00,29.3,15.1,30.13,WNW,282,7.0,7.0,55,0.00,,,0.00,0.00,VWS V14.01,2013-11-13 03:15:00,
2013-11-12 22:20:00,29.3,15.1,30.13,WNW,291,2.0,7.0,55,0.00,,,0.00,0.00,VWS V14.01,2013-11-13 03:20:00,
2013-11-12 22:25:00,29.3,15.1,30.13,West,276,3.0,7.0,55,0.00,,,0.00,0.00,VWS V14.01,2013-11-13 03:25:00,
2013-11-12 22:30:00,29.3,14.7,30.13,WSW,258,11.0,11.0,54,0.00,,,0.00,0.00,VWS V14.01,2013-11-13 03:30:00,
2013-11-12 22:35:00,29.3,15.1,30.14,WSW,258,8.0,8.0,55,0.00,,,0.00,0.00,VWS V14.01,2013-11-13 03:35:00,
2013-11-12 22:40:00,29.3,15.1,30.14,WNW,292,8.0,9.0,55,0.00,,,0.00,0.00,VWS V14.01,2013-11-13 03:40:00,
2013-11-12 22:45:00,29.3,15.1,30.14,West,260,4.0,13.0,55,0.00,,,0.00,0.00,VWS V14.01,2013-11-13 03:45:00,
2013-11-12 22:50:00,29.2,15.1,30.13,WNW,285,4.0,9.0,55,0.00,,,0.00,0.00,VWS V14.01,2013-11-13 03:50:00,
2013-11-12 22:55:00,29.2,15.1,30.13,WNW,298,11.0,15.0,55,0.00,,,0.00,0.00,VWS V14.01,2013-11-13 03:55:00,
2013-11-12 23:00:00,29.1,15.0,30.13,West,275,4.0,7.0,55,0.00,,,0.00,0.00,VWS V14.01,2013-11-13 04:00:00,
2013-11-12 23:05:00,29.0,14.9,30.13,WSW,256,13.0,13.0,55,0.00,,,0.00,0.00,VWS V14.01,2013-11-13 04:05:00,
2013-11-12 23:10:00,29.0,14.9,30.14,WNW,297,4.0,7.0,55,0.00,,,0.00,0.00,VWS V14.01,2013-11-13 04:10:00,
2013-11-12 23:15:00,29.0,14.9,30.14,WNW,288,3.0,4.0,55,0.00,,,0.00,0.00,VWS V14.01,2013-11-13 04:15:00,
2013-11-12 23:20:00,28.8,14.7,30.14,WNW,299,4.0,4.0,55,0.00,,,0.00,0.00,VWS V14.01,2013-11-13 04:20:00,
2013-11-12 23:25:00,28.9,15.2,30.14,West,262,6.0,9.0,56,0.00,,,0.00,0.00,VWS V14.01,2013-11-13 04:25:00,
2013-11-12 23:30:00,28.7,15.0,30.14,WNW,283,2.0,7.0,56,0.00,,,0.00,0.00,VWS V14.01,2013-11-13 04:30:00,
2013-11-12 23:35:00,28.6,14.9,30.14,WSW,253,2.0,4.0,56,0.00,,,0.00,0.00,VWS V14.01,2013-11-13 04:35:00,
2013-11-12 23:40:00,28.6,14.9,30.14,WSW,245,4.0,11.0,56,0.00,,,0.00,0.00,VWS V14.01,2013-11-13 04:40:00,
2013-11-12 23:45:00,28.5,14.8,30.14,WNW,289,8.0,8.0,56,0.00,,,0.00,0.00,VWS V14.01,2013-11-13 04:45:00,
2013-11-12 23:50:00,28.5,14.8,30.14,WSW,253,4.0,8.0,56,0.00,,,0.00,0.00,VWS V14.01,2013-11-13 04:50:00,
2013-11-12 23:55:00,28.4,15.1,30.14,WNW,291,5.0,7.0,57,0.00,,,0.00,0.00,VWS V14.01,2013-11-13 04:55:00,